NOAA NWS Hourly Roundups by Site

Regional Weather Roundup for Detroit, MI

To Select Another Site Choose from List

Select Site:  

000
ASUS43 KDTX 240610
RWRMI
MICHIGAN HOURLY REGIONAL WEATHER ROUNDUP
NATIONAL WEATHER SERVICE DETROIT/PONTIAC MI
100 AM EST MON JAN 24 2022

NOTE: "FAIR" INDICATES FEW OR NO CLOUDS BELOW 12,000 FEET WITH NO
SIGNIFICANT WEATHER AND/OR OBSTRUCTION TO VISIBILITY.

MIZ047>049-052>055-059>063-066>070-074>076-081>083-240700-
SOUTHEAST LOWER MICHIGAN

CITY           SKY/WX    TMP DP  RH WIND       PRES   REMARKS
ADRIAN         MOCLDY     5   1  83 W3        29.90F
6HR MIN TEMP:  -1; 6HR MAX TEMP:  13;

ALMA           MOCLDY    15   8  74 S5        29.84F WCI   7
6HR MIN TEMP:  10; 6HR MAX TEMP:  15;

ANN ARBOR      CLOUDY     6   1  80 W3        29.89F
BAD AXE        MOCLDY    10   3  73 S3        29.84F
6HR MIN TEMP:   6; 6HR MAX TEMP:  13;

CARO           MOCLDY    12   4  70 CALM      29.85F
DETROIT CITY   CLOUDY    13   5  70 CALM      29.90F
6HR MIN TEMP:  11; 6HR MAX TEMP:  21;

DETROIT        CLOUDY    10   2  69 SW3       29.90F
6HR MIN TEMP:   8; 6HR MAX TEMP:  15;

FLINT          CLOUDY    12   3  67 S8        29.86F WCI   0
6HR MIN TEMP:   9; 6HR MAX TEMP:  15;

GROSSE ILE     MOCLDY    14   5  68 CALM      29.91S
6HR MIN TEMP:  11; 6HR MAX TEMP:  20;

HILLSDALE      CLOUDY    11   4  73 S7        29.86F WCI   0
6HR MIN TEMP:   0; 6HR MAX TEMP:  15;

HOWELL         CLOUDY    12   5  74 S6        29.86F WCI   2
6HR MIN TEMP:   6; 6HR MAX TEMP:  13;


CITY           SKY/WX    TMP DP  RH WIND       PRES   REMARKS
JACKSON        CLOUDY    12   4  70 S7        29.87F WCI   1
6HR MIN TEMP:   4; 6HR MAX TEMP:  15;

LAMBERTVILLE   MOCLDY     9   5  84 S3        29.91F
6HR MIN TEMP:  -1; 6HR MAX TEMP:  11;

LANSING        CLOUDY    16   5  62 S12       29.85F WCI   3
6HR MIN TEMP:  13; 6HR MAX TEMP:  17;

LAPEER         CLOUDY    11   4  71 S3        29.85F
6HR MIN TEMP:   9; 6HR MAX TEMP:  15;

MASON          MOCLDY    13   5  69 S3        29.86F
6HR MIN TEMP:   9; 6HR MAX TEMP:  16;

MONROE         MOCLDY     7   2  80 CALM      29.91F
6HR MIN TEMP:  -1; 6HR MAX TEMP:  13;

MT. CLEMENS    CLOUDY    10   8  88 S5        29.88F WCI   2
6HR MIN TEMP:   9; 6HR MAX TEMP:  17;

PONTIAC        CLOUDY    10   3  73 S5        29.84F WCI   2
6HR MIN TEMP:   6; 6HR MAX TEMP:  13;

PORT HOPE        N/A     12   4  70 CALM      29.84F
6HR MIN TEMP:  12; 6HR MAX TEMP:  17;

PORT HURON     MOCLDY     3  -2  78 CALM      29.89F
TRI CITIES     MOCLDY    15   4  61 S8        29.85F WCI   4
6HR MIN TEMP:  13; 6HR MAX TEMP:  17;

MIDLAND        CLOUDY    15   4  60 S6        29.84F WCI   6
6HR MIN TEMP:  13; 6HR MAX TEMP:  18;

TROY           CLOUDY    14   6  69 S3        29.90F
SAGINAW HB     MOCLDY    16   5  63 S8        29.86F WCI   5
6HR MIN TEMP:  11; 6HR MAX TEMP:  19;

$$
MIZ043>046-050>051-056>058-064>065-071>073-077>080-240700-
SOUTHWEST LOWER MICHIGAN

CITY           SKY/WX    TMP DP  RH WIND       PRES   REMARKS
BATTLE CREEK   CLOUDY    16   7  67 S9        29.86F WCI   4
6HR MIN TEMP:  13; 6HR MAX TEMP:  17;

BENTON HARBOR  MOCLDY    16   9  74 S8        29.87F WCI   5
6HR MIN TEMP:  16; 6HR MAX TEMP:  23;

BIG RAPIDS     CLOUDY    14   9  78 CALM      29.79F
6HR MIN TEMP:  13; 6HR MAX TEMP:  17;

COLDWATER      MOCLDY    14   6  69 S6        29.88S WCI   5
6HR MIN TEMP:   1; 6HR MAX TEMP:  14;

FREMONT        CLOUDY    17  13  84 S3        29.80F
6HR MIN TEMP:  16; 6HR MAX TEMP:  19;

HOLLAND        CLOUDY    17  13  84 S8        29.84F WCI   7
6HR MIN TEMP:  11; 6HR MAX TEMP:  18; 6HR PCP: TRACE;

GRAND RAPIDS   MOCLDY    17  11  77 S9        29.83F WCI   6
6HR MIN TEMP:  16; 6HR MAX TEMP:  19; 6HR PCP: TRACE;

IONIA          CLOUDY    16   8  69 S9        29.82F WCI   5
6HR MIN TEMP:  10; 6HR MAX TEMP:  16;

KALAMAZOO      CLOUDY    17   7  64 S9        29.86F WCI   6
6HR MIN TEMP:  14; 6HR MAX TEMP:  19;

LUDINGTON      CLOUDY    19  10  65 SW13G18   29.80F WCI   7
6HR MIN TEMP:  16; 6HR MAX TEMP:  19;

MARSHALL       MOCLDY    14   6  70 S6        29.87S WCI   5
6HR MIN TEMP:   7; 6HR MAX TEMP:  14;

MOUNT PLEASANT CLOUDY    15   6  65 S5        29.81F WCI   8
6HR MIN TEMP:  12; 6HR MAX TEMP:  16;

MUSKEGON       CLOUDY    22  10  60 SW13      29.82F WCI  10
6HR MIN TEMP:  17; 6HR MAX TEMP:  22; 6HR PCP:  0.01;

SOUTH HAVEN    FLURRIES  18  14  82 S8        29.86F WCI   8
$$
MIZ016>042-240700-
NORTHERN LOWER MICHIGAN

CITY           SKY/WX    TMP DP  RH WIND       PRES   REMARKS
ALPENA         CLOUDY    13   2  61 SW7       29.81F WCI   3
6HR MIN TEMP:  11; 6HR MAX TEMP:  14;

BEAVER ISLAND  CLOUDY    18  10  70 W13       29.74F WCI   5
6HR MIN TEMP:  13; 6HR MAX TEMP:  18;

BELLAIRE       MOCLDY    15   6  67 S5        29.80F WCI   7
6HR MIN TEMP:  15; 6HR MAX TEMP:  17;

CADILLAC       CLOUDY    13   6  72 S8        29.74F WCI   2
6HR MIN TEMP:  12; 6HR MAX TEMP:  15;

CHARLEVOIX     CLOUDY    18   8  65 S8        29.76F WCI   8
6HR MIN TEMP:  17; 6HR MAX TEMP:  19;

FRANKFORT      CLOUDY    19   7  61 W12G18    29.79F WCI   6
GAYLORD        CLOUDY    12   1  61 SW8       29.73F WCI   0
6HR MIN TEMP:  11; 6HR MAX TEMP:  14;

GRAYLING       MOCLDY    10   3  72 S3        29.76F
6HR MIN TEMP:  10; 6HR MAX TEMP:  13;

HARBOR SPRINGS CLOUDY    15   7  70 S9G16     29.75F WCI   4
HOUGHTON LAKE  CLOUDY    12   2  64 S6        29.77F WCI   3
6HR MIN TEMP:  11; 6HR MAX TEMP:  14;

MANISTEE       CLOUDY    15   8  73 VRB3      29.80F
OSCODA         MOCLDY     9   1  71 SW3       29.82F
6HR MIN TEMP:   7; 6HR MAX TEMP:  13;

PELLSTON       CLOUDY    15   6  67 S9        29.75F WCI   3
6HR MIN TEMP:  10; 6HR MAX TEMP:  15;

ROGERS CITY    CLOUDY    13   4  67 S7        29.80F WCI   3
TRAVERSE CITY  MOCLDY    16   6  65 S5        29.77F WCI   9
6HR MIN TEMP:  15; 6HR MAX TEMP:  17;

$$
MIZ007>008-015-240700-
EASTERN UPPER MICHIGAN

CITY           SKY/WX    TMP DP  RH WIND       PRES   REMARKS
KINROSS        PTCLDY     5   1  83 W9        29.74F WCI  -9
6HR MIN TEMP:   5; 6HR MAX TEMP:  11;

MACKINAC ISLAN CLOUDY    13   8  79 S7        29.75F WCI   3
6HR MIN TEMP:  10; 6HR MAX TEMP:  13;

NEWBERRY       PTCLDY     7   1  76 W6        29.71F WCI  -3
6HR MIN TEMP:   5; 6HR MAX TEMP:   9;

S. S. MARIE    PTCLDY     9  -3  58 SW9       29.74F WCI  -4
6HR MIN TEMP:   8; 6HR MAX TEMP:  14; 6HR PCP: TRACE;

MUNISING         N/A      3  -4  72 S6        29.72F WCI  -8
6HR MIN TEMP:  -2; 6HR MAX TEMP:   5;

$$
MIZ004>006-011>014-085-240700-
CENTRAL UPPER MICHIGAN

CITY           SKY/WX    TMP DP  RH WIND       PRES   REMARKS
MANISTIQUE     CLOUDY     9   1  70 W5        29.74F WCI   1
6HR MIN TEMP:   9; 6HR MAX TEMP:  13;

ESCANABA       CLOUDY     8  -2  63 SW5       29.76F WCI   0
6HR MIN TEMP:  -1; 6HR MAX TEMP:   8;

MENOMINEE      FLURRIES   8  -4  58 W7        29.80F WCI  -3
6HR MIN TEMP:   8; 6HR MAX TEMP:  10; 6HR PCP: TRACE;

SAWYER-GWINN   CLOUDY     4  -5  66 SW5       29.67F WCI  -5
6HR MIN TEMP:   0; 6HR MAX TEMP:   6;

$$
MIZ001>003-009>011-084-240700-
WESTERN UPPER MICHIGAN

CITY           SKY/WX    TMP DP  RH WIND       PRES   REMARKS
IRON MOUNTAIN  CLOUDY     6  -6  57 W3        29.69F
6HR MIN TEMP:   2; 6HR MAX TEMP:   8;

HOUGHTON       LGT SNOW   8   0  69 SW6       29.64F WCI  -2
6HR MIN TEMP:   6; 6HR MAX TEMP:   9; 6HR PCP: TRACE;

COPPER HARBOR    N/A     10   5  80 VRB6      29.67F WCI   0
6HR MIN TEMP:   9; 6HR MAX TEMP:  12; 6HR PCP:  0.01;

IRONWOOD       CLOUDY     3  -3  76 VRB3      29.67F
6HR MIN TEMP:   3; 6HR MAX TEMP:   5; 6HR PCP: TRACE;

$$

ABBREVIATIONS USED IN REMARKS
   TC - TEMPERATURE IN C

 

View Past Reports for Detroit, MI.

Products Courtesy of NOAA-NWS
NWS Information Parsing Script by Ken True at Saratoga Weather - Script by SE Lincoln Weather.